Location: Narrabri
(30.3170°S, 149.7830°E)
Time: 17:02:48
(UTC+10:00)

Vanguard 2 Rocket - Visible Passes

Search period start: 24 June 2018 00:00
Search period end: 04 July 2018 00:00
Orbit: 553 x 3328 km, 32.9° (Epoch: 23 June)

Date Brightness Start Highest point End Pass type
(mag) Time Alt. Az. Time Alt. Az. Time Alt. Az.
24 Jun 9.6 02:34:59 27° ENE 02:34:59 27° ENE 02:40:12 10° ENE visible
24 Jun 8.7 04:40:49 36° WNW 04:43:36 41° NNW 04:57:28 10° NE visible
25 Jun 8.6 03:44:51 47° N 03:44:51 47° N 03:55:56 10° NE visible
25 Jun 9.7 05:51:00 10° WNW 05:58:59 22° NNW 06:09:57 10° NNE visible
26 Jun 9.5 02:48:54 28° NE 02:48:54 28° NE 02:54:17 10° ENE visible
26 Jun 9.2 04:54:44 23° NW 04:58:11 28° NNW 05:09:42 10° NNE visible
26 Jun 8.3 19:01:33 10° N 19:04:13 15° NNE 19:04:13 15° NNE visible
27 Jun 9.0 03:58:47 34° NNW 03:58:47 34° NNW 04:08:54 10° NNE visible
27 Jun 10.1 06:09:31 10° NW 06:13:46 12° NNW 06:18:40 10° N visible
27 Jun 8.7 18:04:18 10° NNE 18:05:00 10° NNE 18:05:40 10° NNE visible
27 Jun 9.1 20:13:43 10° NW 20:14:08 12° NW 20:14:08 12° NW visible
28 Jun 9.5 03:02:50 25° NNE 03:02:50 25° NNE 03:07:50 10° NE visible
28 Jun 9.6 05:08:40 13° NW 05:12:55 17° NNW 05:20:33 10° N visible
28 Jun 7.6 19:14:17 10° NW 19:18:13 28° N 19:18:13 28° N visible
29 Jun 9.4 04:12:43 22° NNW 04:12:43 22° NNW 04:20:53 10° NNE visible
29 Jun 8.1 18:14:52 10° NNW 18:19:35 21° NNE 18:22:17 14° ENE visible
29 Jun 9.3 20:27:53 10° WNW 20:28:06 11° WNW 20:28:06 11° WNW visible
30 Jun 9.7 03:16:46 19° NNE 03:16:46 19° NNE 03:20:39 10° NNE visible
30 Jun 7.3 19:28:00 10° NW 19:32:10 41° NNW 19:32:10 41° NNW visible
01 Jul 9.8 04:26:38 11° NNW 04:27:12 12° NNW 04:30:25 10° N visible
01 Jul 7.4 18:27:56 10° NW 18:34:07 37° NNE 18:36:13 25° ENE visible
02 Jul 9.9 03:30:39 12° N 03:30:39 12° N 03:32:09 10° N visible
02 Jul 8.4 17:27:47 10° NNW 17:34:36 29° NNE 17:39:10 10° E visible
02 Jul 7.5 19:42:14 10° WNW 19:46:05 40° WNW 19:46:05 40° WNW visible
03 Jul 6.7 18:41:45 10° WNW 18:48:36 62° NNE 18:50:07 41° E visible
